Location: ???????
(55.4362°N, 38.1183°E)
Time: 13:32:24
(UTC+00:00)

Oscar 11 - Pass Details

Date: 08 December 2021
Orbit: 611 x 625 km, 97.6° (Epoch: 25 January)

Event Time Altitude Azimuth Distance (km) Brightness Sun altitude
Rises 13:48:26 0° 166° (SSE) 2,901 10.7 -6.7°
Reaches altitude 10° 13:50:37 10° 168° (SSE) 1,999 9.9 -6.9°
Maximum altitude 13:54:59 80° 255° (WSW) 643 7.3 -7.5°
Drops below altitude 10° 13:59:23 10° 344° (NNW) 2,014 9.6 -8.0°
Sets 14:01:36 0° 345° (NNW) 2,925 10.4 -8.3°
